Location: H�heischweiler
(49.2300°N, 7.5490°E)
Time: 17:55:24
(UTC+00:00)

Daily predictions for brighter satellites

Satellite Brightness Start Highest point End
(mag) Time Altitude Azimuth Time Altitude Azimuth Time Altitude Azimuth
USA 267 3.3 16:00:50 10° ESE 16:07:18 65° NNE 16:13:46 10° WNW
Cosmos 2369 Rocket 3.3 16:03:19 10° N 16:07:50 24° NE 16:12:19 10° E
Nadezhda 4 Rocket 4.1 16:04:13 10° S 16:10:25 60° E 16:16:36 10° NNE
NOSS 0 Rocket 4.0 16:04:35 10° SSW 16:10:50 90° ENE 16:17:07 10° NNE
USA 229 DEB 4.4 16:06:23 10° NW 16:12:56 38° NNE 16:19:45 10° E
USA 229 4.4 16:06:29 10° NW 16:13:01 37° NNE 16:19:49 10° E
NOSS 3-4 (A) 4.5 16:11:23 10° W 16:17:06 38° NNW 16:23:15 10° NE
NOSS 3-4 (C) 4.5 16:11:29 10° W 16:17:11 38° NNW 16:23:20 10° NE
Cosmos 1743 3.9 16:14:13 10° NNE 16:17:22 23° ENE 16:20:30 10° SE
PSLV R/B 4.5 16:13:42 10° NNE 16:17:37 39° E 16:21:28 10° SSE
SL-16 R/B 2.9 16:13:21 10° S 16:18:30 37° ESE 16:23:40 10° NE
Envisat 3.8 16:14:51 10° ESE 16:19:11 29° ENE 16:23:32 10° N
BREEZE-M DEB (TANK) 3.0 16:16:43 10° WNW 16:23:47 62° SSW 16:26:29 10° ESE
Helios 1A Rocket 3.4 16:19:48 10° S 16:23:53 67° WSW 16:27:57 10° NNW
RESURS DK-1 4.0 16:20:52 10° WSW 16:24:30 29° NW 16:28:10 10° NNE
Cosmos 2237 Rocket 2.3 16:19:26 10° SSW 16:25:09 86° WNW 16:30:53 10° NNE
Cosmos 2251 Rocket 3.8 16:20:09 10° SSW 16:25:25 70° WNW 16:30:42 10° NNE
Cosmos 407 Rocket 4.2 16:21:56 10° SSE 16:26:38 36° ESE 16:31:25 10° NE
Cosmos 1943 Rocket 2.8 16:21:43 10° NNW 16:26:50 34° NE 16:31:53 10° ESE
Cosmos 1500 4.2 16:25:07 10° NNW 16:28:46 49° W 16:32:23 10° S
Cosmos 1536 2.9 16:25:12 10° N 16:29:14 83° W 16:33:13 10° S
Cosmos 2322 Rocket 4.4 16:27:03 10° WNW 16:29:41 13° NNW 16:32:20 10° N
Cosmos 2219 Rocket 3.4 16:25:14 10° WSW 16:30:26 37° NW 16:35:42 10° NNE
STARLINK-67 2.9 16:28:35 10° WNW 16:31:16 46° NNE 16:33:30 14° E
Cosmos 2026 Rocket 4.4 16:25:55 10° SSE 16:31:29 40° E 16:37:05 10° NNE
Cosmos 1812 3.2 16:27:42 10° SSW 16:31:32 65° WNW 16:35:24 10° N
Feng Yun 1-1 Rocket 4.2 16:26:22 10° SSE 16:31:41 65° ENE 16:37:05 10° N
Cosmos 1689 Rocket 2.9 16:29:21 10° N 16:32:20 53° WNW 16:35:15 10° SSW
Cosmos 1782 Rocket 3.8 16:29:39 10° N 16:33:50 44° ENE 16:37:59 10° SSE
CZ-4C R/B 4.0 16:34:28 10° ESE 16:36:00 11° ESE 16:37:20 10° E
Lacrosse 5 rocket 2.3 16:32:23 10° W 16:36:22 37° NNW 16:39:35 13° NE
Cosmos 2333 Rocket 3.6 16:31:26 10° WSW 16:36:41 35° NW 16:41:58 10° NNE
FALCON 9 DEB 3.1 16:33:42 10° WSW 16:37:13 83° NNW 16:39:56 16° ENE
AQUARIUS 4.1 16:34:05 10° SSE 16:38:31 63° ENE 16:42:59 10° N
STARLINK-46 3.4 16:37:31 10° WNW 16:40:00 33° N 16:41:26 19° ENE
SL-4 R/B 1.9 16:36:47 10° WNW 16:40:30 61° N 16:43:44 15° E
SL-16 R/B 4.5 16:40:26 10° NW 16:42:03 11° NNW 16:43:40 10° N
Cosmos 1862 Rocket 4.2 16:38:25 10° SSW 16:42:44 58° WNW 16:47:07 10° N
Lacrosse 5 3.6 16:42:51 10° SSE 16:45:59 17° ESE 16:48:09 13° E
Cosmos 1703 Rocket 3.6 16:42:18 10° S 16:46:43 60° E 16:51:09 10° NNE
SeaSat 1 4.5 16:46:56 10° NNE 16:47:26 10° NNE 16:47:58 10° NNE
CSL-04 Rocket 4.5 16:43:13 10° ESE 16:47:33 27° ENE 16:51:57 10° N
Okean 1 3.9 16:45:16 10° SSE 16:48:55 35° E 16:52:16 12° NNE
Cosmos 405 Rocket 3.7 16:47:53 10° NNE 16:50:52 22° ENE 16:53:51 10° ESE
Okean 2 Rocket 3.8 16:47:18 10° N 16:51:21 32° ENE 16:55:24 10° SE
Aureole 1 Rocket 2.5 16:51:45 10° SSW 16:54:48 72° WNW 16:58:13 11° NNE
ATLAS 2AS CENTAUR R/B 4.1 16:48:27 10° W 16:55:34 33° NNW 17:01:46 13° NE
NOAA 12 4.0 16:50:53 10° SSE 16:56:07 66° ENE 17:01:21 10° N
STARLINK-60 3.4 16:53:18 10° W 16:56:39 57° NNW 16:58:26 24° NE
BREEZE-M R/B 2.9 16:50:59 10° W 16:57:00 84° SSW 16:59:21 18° ESE
Cosmos 1980 4.5 16:52:11 10° SW 16:57:39 50° NW 17:03:11 10° NNE
Sich 1 Rocket 3.5 16:54:01 10° N 16:58:22 59° ENE 17:02:42 10° SSE
Cosmos 2221 Rocket 4.3 16:55:44 10° SSE 16:59:38 31° E 17:02:14 18° NE
Cosmos 1441 Rocket 3.4 16:57:53 10° NNW 17:01:42 70° W 17:05:24 10° S
Ariane Rocket 4.5 17:03:39 17° NE 17:03:39 17° NE 17:05:58 10° NNE
H-2A R/B 3.0 17:01:56 10° S 17:05:34 66° WSW 17:09:16 10° NNW
Cosmos 1763 Rocket 4.4 17:02:25 10° N 17:06:36 25° NE 17:07:43 23° ENE
SMAP 3.5 17:02:27 10° S 17:07:04 66° WSW 17:11:44 10° NNW
Meteor 1-19 Rocket 4.5 17:02:54 10° SSE 17:08:00 41° E 17:12:46 12° NNE
Cosmos 2297 4.4 17:03:25 10° NW 17:09:00 57° WSW 17:14:31 10° S
Cosmos 2195 Rocket 4.5 17:03:11 10° S 17:09:27 86° E 17:15:48 10° N
COBE Rocket 3.8 17:04:49 10° NNE 17:09:31 87° W 17:14:16 10° SSW
Okean O Rocket 4.2 17:06:59 10° SSW 17:10:27 23° W 17:13:58 10° NW
Cosmos 1627 Rocket 4.4 17:04:42 10° S 17:10:48 81° E 17:17:00 10° N
Okean 1-7 3.0 17:07:30 10° S 17:11:52 90° NNW 17:16:18 10° N
STARLINK-52 3.3 17:08:33 10° WSW 17:12:03 65° NNW 17:13:24 33° NE
Cosmos 1666 4.2 17:08:59 10° NNW 17:12:28 37° W 17:15:56 10° SSW
CZ-4 R/B 1.6 17:10:45 10° SE 17:14:22 40° ENE 17:18:00 10° N
Cosmos 1867 3.9 17:09:04 10° NW 17:14:30 68° SW 17:19:53 10° SSE
USA 215 3.2 17:10:07 20° ENE 17:14:57 84° SE 17:21:30 10° SW
Cosmos 2263 4.5 17:11:04 10° NNW 17:16:41 47° NE 17:22:14 10° SE
BREEZE-M DEB (TANK) 3.0 17:12:27 10° W 17:16:55 46° SSW 17:18:32 22° SE
YAOGAN 6 2.6 17:14:11 10° SSE 17:17:41 56° ENE 17:21:15 10° N
Abrixas rocket 3.2 17:16:37 10° SW 17:19:16 28° SSE 17:19:38 27° SE
STARLINK-29 3.4 17:16:43 10° W 17:20:12 58° NNW 17:21:14 39° NE
Cosmos 1515 4.2 17:18:38 10° SSE 17:21:57 35° E 17:21:57 35° E
Cosmos 614 Rocket 4.0 17:17:15 10° SSW 17:22:20 80° WNW 17:26:38 15° NNE
Cosmos 1300 Rocket 3.7 17:19:08 10° N 17:23:19 46° ENE 17:27:28 10° SSE
Cosmos 1092 Rocket 4.4 17:17:16 10° SSW 17:23:30 66° WNW 17:29:44 10° N
Cosmos 1975 2.7 17:19:54 10° N 17:23:55 76° ENE 17:27:56 10° SSE
Cosmos 1190 Rocket 3.9 17:19:48 10° SSW 17:25:00 90° WNW 17:29:07 17° NNE
COSMO-SKYMED 1 2.7 17:23:32 27° NE 17:25:35 49° E 17:29:48 10° S
Cosmos 676 Rocket 4.0 17:22:55 10° S 17:28:00 61° ESE 17:30:53 26° NE
STARLINK-48 4.2 17:25:17 10° SSW 17:28:50 35° SE 17:29:22 33° ESE
YAOGAN 1 2.7 17:25:44 10° SE 17:29:54 50° ENE 17:34:07 10° N
Cosmos 1655 Rocket 4.0 17:24:57 10° SSE 17:31:04 55° E 17:37:09 10° NNE
Cosmos 1954 Rocket 3.9 17:28:16 10° S 17:33:22 64° ESE 17:36:01 28° NE
Meteor 2-9 Rocket 4.2 17:28:23 10° N 17:34:17 80° ENE 17:40:03 10° SSE
Meteor 1-12 Rocket 4.2 17:29:48 10° N 17:35:37 60° ENE 17:41:17 10° SSE
Okean-O 3.3 17:33:13 10° S 17:37:35 57° W 17:41:58 10° NNW
Lacrosse 4 Rocket 3.2 17:34:24 10° NNW 17:36:08 18° N 17:36:08 18° N
Okean 3 3.4 17:33:46 10° S 17:37:51 56° E 17:38:35 48° NE
NOAA 11 4.3 17:33:14 10° SE 17:38:30 51° ENE 17:43:49 10° N
NOSS 7 (E) 4.5 17:37:12 10° SSW 17:40:25 58° SSE 17:40:25 58° SSE
Cosmos 1943 3.6 17:37:18 10° S 17:42:26 37° ESE 17:42:50 37° E
Cosmos 1656 Rocket 3.8 17:39:58 10° NNW 17:45:15 46° NE 17:46:04 43° E
IRIDIUM 104 4.4 17:41:29 10° SSE 17:46:32 53° E 17:48:54 30° NNE
SKYMED 3 4.4 17:47:53 35° NNE 17:49:43 85° ESE 17:54:03 10° SSW
USA 267 3.8 17:44:01 10° SE 17:50:25 56° SW 17:56:51 10° WNW
Cosmos 1140 Rocket 3.7 17:45:59 10° SSW 17:51:06 69° WNW 17:54:13 24° NNE
Cosmos 2369 Rocket 2.2 17:46:52 10° NNW 17:52:32 81° WSW 17:58:11 10° SSE
NOSS 3-1 (C) 4.0 17:45:48 10° NW 17:53:12 84° NE 18:01:10 12° SE
Meteor 1-13 Rocket 4.3 17:50:05 10° SSE 17:55:27 50° E 17:55:45 49° E
IRIDIUM 114 4.2 17:50:31 10° S 17:55:39 64° E 17:58:03 32° NNE
S3M 3.9 17:50:43 10° N 17:56:56 84° W 18:03:04 10° S
STARLINK-43 3.4 17:53:22 10° WSW 17:56:49 75° W 17:56:49 75° W
Envisat 4.1 17:53:10 10° S 17:58:02 45° W 18:02:55 10° NNW
Cosmos 2266 Rocket 3.9 17:55:09 10° S 18:01:27 64° E 18:05:44 21° NNE
SL-16 R/B 3.1 17:57:06 10° SW 18:02:32 44° NW 18:06:14 20° N
Cosmos 2151 Rocket 3.6 17:58:46 10° NNW 18:03:12 78° W 18:07:34 10° S
Cosmos 468 Rocket 3.8 17:58:01 10° NNW 18:03:14 76° ENE 18:04:48 45° SE
USA 229 DEB 3.8 17:57:24 10° NW 18:04:39 85° SW 18:10:45 17° SE
USA 229 3.8 17:57:31 10° NW 18:04:45 85° SW 18:10:44 18° SE
IRIDIUM 103 4.2 17:59:36 10° S 18:04:48 76° E 18:07:13 33° NNE
USA 81 4.2 18:02:58 10° S 18:07:16 53° SE 18:07:16 53° SE
Cosmos 1603 3.6 18:04:02 10° SSW 18:09:45 77° ESE 18:10:51 58° NE
Cosmos 2237 Rocket 4.2 18:05:48 10° W 18:10:05 21° NW 18:13:54 12° N
NOSS 3-1 (A) 3.9 18:02:50 10° NW 18:10:12 77° NE 18:14:13 34° SE
Cosmos 1943 Rocket 3.0 18:05:22 10° NW 18:10:50 51° WSW 18:16:11 10° S
SKYMED 2 4.1 18:12:12 36° NNW 18:13:44 56° WNW 18:17:59 10° SSW
Lacrosse 5 rocket 3.1 18:12:49 10° NW 18:15:14 23° NNW 18:15:14 23° NNW
Cosmos 1850 Rocket 4.2 18:12:42 10° S 18:17:00 55° SSE 18:17:00 55° SSE
SL-4 R/B 2.8 18:16:20 10° WNW 18:19:21 49° W 18:19:21 49° W
CZ-4C R/B 2.1 18:18:00 10° SSW 18:22:34 65° SSE 18:22:34 65° SSE
IRIDIUM 106 4.4 18:17:54 10° S 18:23:07 78° W 18:25:24 35° N
SeaSat 1 4.4 18:26:43 18° N 18:26:43 18° N 18:28:08 10° NNW
Cosmos 405 Rocket 4.5 18:23:38 10° NNW 18:26:54 30° W 18:30:11 10° SSW
CSL-04 Rocket 4.2 18:22:25 10° S 18:27:35 55° W 18:32:49 10° NNW
Lacrosse 5 2.2 18:23:08 10° SW 18:27:22 59° SSW 18:27:22 59° SSW
Meteor 2-4 Rocket 4.1 18:28:46 10° SSW 18:34:34 64° WNW 18:37:11 33° N
Ariane Rocket 4.5 18:43:50 27° NNW 18:43:50 27° NNW 18:46:07 10° NNW
Gbstr 26 Del rocket 4.1 18:39:06 10° SW 18:45:06 60° SSW 18:45:06 60° SSW
Cosmos 2315 Rocket 4.1 18:39:43 10° NNW 18:46:03 76° W 18:52:17 10° S
Cosmos 2344 4.4 18:38:18 10° NW 18:47:54 81° SW 18:58:09 19° SSE
Cosmos 1763 Rocket 4.2 18:43:47 10° NNW 18:47:49 49° WNW 18:47:49 49° WNW
ATLAS 2AS CENTAUR R/B 4.1 18:42:11 10° NW 18:48:56 29° N 18:49:12 29° NNE
CZ-4 R/B 3.9 18:46:47 10° SW 18:49:35 19° W 18:52:24 10° NW
USA 215 3.6 18:57:28 52° N 18:57:46 52° NNW 19:04:03 10° W
